Preview of NWS' New Version of Forecast
This preview is not operational and should not be used for support decisions.

Regional Weather Roundup (RWR)

Issued by Philadelphia/Mt Holly (PHI)

                            
000
ASUS41 KPHI 251412
RWRPHI

REGIONAL WEATHER ROUNDUP
NATIONAL WEATHER SERVICE MOUNT HOLLY NJ
1000 AM EDT SAT MAY 25 2019

NOTE:  "FAIR" INDICATES FEW OR NO CLOUDS BELOW 12,000 FEET WITH NO
SIGNIFICANT WEATHER AND/OR OBSTRUCTIONS TO VISIBILITY.

 * = STATION DOES NOT REPORT PRECIPITATION (E.G. RAIN, SNOW, ETC.) 
        OR FOG.

NJZ015>026-251500-
SOUTHERN NEW JERSEY
  
CITY           SKY/WX    TMP DP  RH WIND       PRES   REMARKS
POMONA         CLOUDY    64  50  60 S9        30.26R                  
WILDWOOD*      CLOUDY    67  54  63 SE13      30.26R                  
MILLVILLE      CLOUDY    64  50  60 SE7       30.25R                  
WRIGHTSTOWN    FAIR      67  51  57 S7        30.22F                  
MOUNT HOLLY    PTSUNNY   65  53  65 VRB3      30.25S                  
TRENTON        CLOUDY    62  50  64 S9        30.25R                  

$$
NJZ001>014-251500-
NORTHERN NEW JERSEY
  
CITY           SKY/WX    TMP DP  RH WIND       PRES   REMARKS
SUSSEX         FAIR      65  56  72 SE6       30.22F                  
ANDOVER*         N/A     63  52  67 VRB6      30.23S                  
MORRISTOWN     MOSUNNY   64  54  68 S9        30.24S                  
NEWARK         FAIR      65  50  58 VRB7      30.24S                  
TETERBORO      FAIR      65  51  60 S10       30.23S                  
CALDWELL       PTSUNNY   64  51  62 VRB6      30.24S                  
SOMERVILLE     PTSUNNY   65  53  65 S7        30.23S                  
ALLAIRE*       FAIR      63  49  60 SE9       30.26S                  
TOMS RIVER*    FAIR      66  51  58 SE8       30.26S                  

$$
PAZ043-044-047-054-055-060>062-066>071-251500-
EASTERN PENNSYLVANIA
  
CITY           SKY/WX    TMP DP  RH WIND       PRES   REMARKS
PHILADELPHIA   CLOUDY    65  50  58 S7        30.25S                  
NORTH PHILA    CLOUDY    66  51  58 VRB3      30.26S                  
BLUE BELL*     CLOUDY    63  53  68 E7        30.25F                  
DOYLESTOWN     CLOUDY    63  51  65 S7        30.24S                  
QUAKERTOWN*    CLOUDY    63  54  72 VRB7      30.25S                  
PERKASIE*      CLOUDY    63  54  72 SE5       30.25F                  
POTTSTOWN      CLOUDY    62  51  67 VRB6      30.26S                  
LANCASTER      CLOUDY    67  55  65 S10       30.22S                  
COATESVILLE    PTSUNNY   61  54  77 S8        30.26R                  
WEST CHESTER   CLOUDY    63  52  67 SE6       30.25S                  
READING        PTSUNNY   66  56  70 S12       30.21F                  
ALLENTOWN      CLOUDY    65  51  60 S8        30.24R                  
QN CITY/ALNTWN CLOUDY    63  54  72 SE9       30.25S                  
MOUNT POCONO   CLOUDY    56  51  84 S9        30.23S                  
HAZLETON       FAIR      61  50  67 SE9       30.24F                  
LEHIGHTON      CLOUDY    61  52  72 CALM      30.24F                  
WILKES BARRE   CLOUDY    62  52  69 SW3       30.20S                  

$$
DEZALL-MDZ008-012-015-019-020-251500-
DELAWARE AND EASTERN MARYLAND
  
CITY           SKY/WX    TMP DP  RH WIND       PRES   REMARKS
WILMINGTON     CLOUDY    64  55  72 S13       30.25S                  
DOVER          CLOUDY    65  57  77 E9        30.24R                  
CHESWOLD         N/A     64  57  77 VRB6G12   30.24S                  
GEORGETOWN     PTSUNNY   66  55  67 SE13      30.24S                  
EASTON         MOSUNNY   68  57  68 SE9       30.26R                  
STEVENSVILLE   CLOUDY    68  57  68 SE9       30.22S                  
PATUXENT       FAIR      71  62  73 SE10      30.21                   
OCEAN CITY     PTSUNNY   67  57  70 SE10      30.24S                  
WALLOPS ISLAND PTSUNNY   70  61  73 E12       30.22F                  
CAMBRIDGE      CLOUDY    66  57  72 SE8       30.23R                  
SALISBURY      PTSUNNY   68  59  73 SE13      30.22F                  

$$
PAZ001-021-NYZ056-072-MDZ011-DCZ001-251500-
OTHER NEARBY LOCATIONS
  
CITY           SKY/WX    TMP DP  RH WIND       PRES   REMARKS
HARRISBURG     PTSUNNY   67  53  61 SE7       30.20F                  
STATE COLLEGE  PTSUNNY   64  54  68 S8        30.18S                  
WILLIAMSPORT   CLOUDY    64  51  62 VRB7G17   30.16F                  
BINGHAMTON     CLOUDY    58  48  69 S13G20    30.16F                  
NEW YORK CITY  FAIR      63  49  60 SE7       30.26S                  
BALTIMORE      PTSUNNY   69  55  60 S7        30.21S                  
WASHINGTON DC  FAIR      71  56  58 S7        30.21S                  

$$